Location: Woodstock
(35.2731°N, 89.9823°W)
Time: 08:41:32
(UTC+00:00)

Transit 2A - Pass Details

Date: 13 November 2024
Orbit: 592 x 956 km, 66.7° (Epoch: 06 December)

Event Time Altitude Azimuth Distance (km) Brightness Sun altitude
Exits shadow 08:44:09 16° 74° (ENE) 2,270 8.9 -46.8°
Drops below altitude 10° 08:46:02 10° 59° (ENE) 2,687 9.3 -46.4°
Sets 08:49:14 0° 44° (NE) 3,625 10.0 -45.8°
